Simultaneous Nadir Overpasses (SNOs) Predictions

Prediction of SNOs between GOES-16 and NPP Satellite Orbit:

Table of predicted SNOs for the next 14.0 days since TLE Epoch: 4/14/2024
Index Date Time (GOES-16) GOES-16 Lat,Lon NPP Lat,Lon Distance(km) Time Diff (sec)
1 04/15/2024 06:39:26 -0.01, -75.22 0.65, -78.13 332.63 80
2 04/16/2024 06:18:02 -0.01, -75.22 -0.36, -73.60 184.12 80
3 04/17/2024 18:42:39 0.00, -75.23 -0.81, -78.92 419.93 80
4 04/18/2024 18:21:15 0.00, -75.24 0.21, -74.39 97.46 80
5 04/21/2024 06:24:17 -0.00, -75.28 -0.02, -75.12 17.29 80
6 04/23/2024 18:27:30 0.00, -75.31 -0.11, -75.91 67.59 80
7 04/24/2024 18:11:26 0.00, -75.33 0.91, -71.38 450.62 80
8 04/26/2024 06:33:13 -0.00, -75.36 0.28, -76.65 146.54 80
9 04/27/2024 06:11:49 -0.00, -75.38 -0.75, -72.12 371.61 80
